Trinidad, CO

5:27 AM MST on November 18, 2017 (GMT -0700)
Stokes

Weather History for KTAD - February, 2014

Change the Weather History Date:

Tuesday, February 11, 2014

  Actual Average Record
Temperature  
Mean Temperature 38 °F 34 °F  
Max Temperature 52 °F 49 °F 77 °F (1951)
Min Temperature 24 °F 19 °F -10 °F (1981)
Degree Days  
Heating Degree Days 27 31  
Month to date heating degree days 480 348  
Since 1 July heating degree days 3638 3630  
Cooling Degree Days 0 0  
Month to date cooling degree days 0 0  
Year to date cooling degree days 0 0  
Moisture  
Dew Point 23 °F    
Average Humidity 66    
Maximum Humidity 100    
Minimum Humidity 31    
Precipitation  
Precipitation T in 0.02 in 0.37 in (1952)
Month to date precipitation T 0.17  
Year to date precipitation 0.09 0.57  
Sea Level Pressure  
Sea Level Pressure 30.06 in    
Wind  
Wind Speed 9 mph (West)    
Max Wind Speed 18 mph    
Max Gust Speed 21 mph    
Visibility 7 miles    
Events Rain    
T = Trace of Precipitation, MM = Missing Value Source: NWS Daily Summary

Daily Weather History Graph

Daily Weather History Graph

Search for Another Location

Airport or City:

Trip Planner

Search our weather history database for the weather conditions in past years. The results will help you decide how hot, cold, wet, or windy it might be!

Date:

Astronomy

Feb. 11, 2014 Rise Set
Actual Time 6:50 AM MST 5:32 PM MST
Civil Twilight 6:23 AM MST 5:59 PM MST
Nautical Twilight 5:53 AM MST 6:30 PM MST
Astronomical Twilight 5:22 AM MST 7:00 PM MST
Moon 2:57 PM MST (2/11) 4:27 AM MST (2/11)
Length of Visible Light 11h 36m
Length of Day
10h 42m
Waxing Gibbous, 91% of the Moon is Illuminated
Feb 11
Waxing Gibbous
Feb 14
Full
Feb 22
Last Quarter
Mar 1
New
Mar 8
First Quarter

Hourly Weather History & Observations

Time (MST) Temp. Windchill Dew Point Humidity Pressure Visibility Wind Dir Wind Speed Gust Speed Precip Events Conditions
12:25 AM 26.1 °F 21.9 °F 25.0 °F 96% 30.11 in 1.5 mi West 3.5 mph - N/A   Overcast
12:54 AM 26.1 °F 21.9 °F 25.0 °F 96% 30.20 in 2.5 mi WNW 3.5 mph - N/A   Overcast
1:20 AM 27.0 °F 20.5 °F 25.0 °F 92% 30.11 in 3.0 mi West 5.8 mph - N/A   Overcast
1:54 AM 27.0 °F 21.6 °F 25.0 °F 92% 30.18 in 3.0 mi West 4.6 mph - N/A   Overcast
2:26 AM 27.0 °F 21.6 °F 25.0 °F 92% 30.11 in 2.5 mi West 4.6 mph - N/A   Overcast
2:38 AM 27.0 °F 20.5 °F 25.0 °F 92% 30.11 in 1.5 mi West 5.8 mph - N/A   Overcast
2:54 AM 27.0 °F 21.6 °F 26.1 °F 96% 30.19 in 1.8 mi NW 4.6 mph - N/A   Overcast
3:01 AM 27.0 °F 23.0 °F 26.1 °F 96% 30.11 in 2.5 mi WNW 3.5 mph - N/A   Overcast
3:34 AM 28.0 °F 21.7 °F 26.1 °F 92% 30.11 in 4.0 mi WNW 5.8 mph - N/A   Overcast
3:43 AM 28.0 °F 21.7 °F 26.1 °F 92% 30.11 in 6.0 mi West 5.8 mph - N/A   Overcast
3:54 AM 28.0 °F 20.8 °F 26.1 °F 92% 30.17 in 6.0 mi West 6.9 mph - N/A   Overcast
4:39 AM 26.1 °F 17.6 °F 24.1 °F 92% 30.10 in 6.0 mi West 8.1 mph - N/A   Scattered Clouds
4:54 AM 26.1 °F 17.6 °F 23.0 °F 88% 30.17 in 7.0 mi West 8.1 mph - N/A   Clear
5:54 AM 25.0 °F 16.3 °F 21.9 °F 88% 30.17 in 7.0 mi SSW 8.1 mph - N/A   Clear
6:54 AM 25.0 °F 14.2 °F 23.0 °F 92% 30.17 in 9.0 mi WSW 11.5 mph - N/A   Clear
7:54 AM 28.0 °F 16.1 °F 25.0 °F 88% 30.15 in 10.0 mi WSW 16.1 mph - N/A   Clear
8:54 AM 32.0 °F 22.1 °F 27.0 °F 82% 30.13 in 10.0 mi WSW 13.8 mph - N/A   Clear
9:54 AM 37.9 °F 32.1 °F 28.0 °F 68% 30.10 in 10.0 mi WSW 8.1 mph - N/A   Clear
10:54 AM 42.1 °F 38.4 °F 27.0 °F 55% 30.06 in 10.0 mi Variable 5.8 mph - N/A   Clear
11:54 AM 45.0 °F 42.6 °F 24.1 °F 44% 30.00 in 10.0 mi ENE 4.6 mph - N/A   Clear
12:54 PM 48.0 °F - 23.0 °F 37% 29.94 in 10.0 mi SE 6.9 mph - N/A   Clear
1:54 PM 48.9 °F - 21.9 °F 35% 29.90 in 10.0 mi North - - N/A   Clear
2:54 PM 50.0 °F - 21.0 °F 32% 29.88 in 10.0 mi ENE 6.9 mph - N/A   Clear
3:54 PM 48.9 °F - 19.9 °F 32% 29.85 in 10.0 mi SE 4.6 mph - N/A   Clear
4:54 PM 46.9 °F - 21.0 °F 36% 29.88 in 10.0 mi West 8.1 mph - 0.00 in Rain Light Rain
5:54 PM 43.0 °F 36.4 °F 24.1 °F 47% 29.94 in 10.0 mi West 12.7 mph - 0.00 in   Clear
6:54 PM 39.9 °F 31.4 °F 24.1 °F 53% 29.98 in 10.0 mi WSW 16.1 mph - N/A   Clear
7:54 PM 39.0 °F 31.4 °F 23.0 °F 53% 29.98 in 10.0 mi West 12.7 mph - 0.00 in Rain Light Rain
8:54 PM 33.1 °F 26.1 °F 19.0 °F 56% 30.01 in 10.0 mi WNW 8.1 mph - 0.00 in Rain Light Rain
9:54 PM 34.0 °F 25.0 °F 19.9 °F 56% 30.01 in 10.0 mi West 12.7 mph - 0.00 in Rain Light Rain
10:54 PM 33.1 °F 25.5 °F 12.9 °F 43% 30.03 in 10.0 mi WNW 9.2 mph - 0.00 in Rain Light Rain
11:54 PM 32.0 °F 23.0 °F 12.0 °F 44% 30.02 in 10.0 mi WNW 11.5 mph - 0.00 in   Clear